BAW807K EKBI-EGLL

Flight info

Callsign BAW807K
Flight time N/A
Altitude 38000
Route MIKRO5A MIKRO DCT OMIMA DCT LONAM P43 LARDI N866 BUKUT P7 BARMI BARMI1H
Aircraft A319/M-SDE2E3FGHIJ1RWXY/S

Departure

Time 2025-10-08 15:33
Airport Billund Airport (EKBI)

Arrival

Time N/A
Airport London Heathrow Airport (EGLL)
Time Latitude Longitude Altitude Speed Heading
2025-10-08 14:50 55.74524 9.14553 225 ft 0 kts 357°
2025-10-08 15:21 55.74480 9.14557 216 ft 2 kts 358°
2025-10-08 15:21 55.74447 9.14537 218 ft 3 kts 62°
2025-10-08 15:22 55.74440 9.14505 219 ft 3 kts 84°
2025-10-08 15:25 55.74442 9.14560 216 ft 8 kts 87°
2025-10-08 15:25 55.74445 9.14670 216 ft 10 kts 87°
2025-10-08 15:26 55.74369 9.14983 224 ft 12 kts 177°
2025-10-08 15:26 55.74275 9.14992 216 ft 15 kts 177°
2025-10-08 15:27 55.74201 9.15211 216 ft 15 kts 87°
2025-10-08 15:27 55.74223 9.15913 219 ft 23 kts 87°
2025-10-08 15:28 55.74243 9.16548 216 ft 28 kts 86°
2025-10-08 15:28 55.74265 9.17241 216 ft 29 kts 87°
2025-10-08 15:29 55.74284 9.17859 216 ft 21 kts 86°
2025-10-08 15:29 55.74237 9.18138 222 ft 10 kts 159°
2025-10-08 15:30 55.74221 9.18144 220 ft 0 kts 171°
2025-10-08 15:31 55.74119 9.17962 216 ft 26 kts 267°
2025-10-08 15:32 55.74051 9.15713 218 ft 148 kts 267°
2025-10-08 15:32 55.74243 9.12021 1398 ft 157 kts 303°
2025-10-08 15:33 55.75776 9.08516 2123 ft 206 kts 305°
2025-10-08 15:33 55.77623 9.03914 3461 ft 245 kts 304°
2025-10-08 15:34 55.78619 9.01417 4514 ft 250 kts 304°
2025-10-08 15:34 55.79135 8.95573 6534 ft 259 kts 245°
2025-10-08 15:35 55.76788 8.90699 8555 ft 266 kts 226°
2025-10-08 15:35 55.72748 8.83476 10713 ft 299 kts 231°
2025-10-08 15:36 55.69924 8.77618 11957 ft 319 kts 233°
2025-10-08 15:36 55.67079 8.71471 13557 ft 326 kts 234°
2025-10-08 15:37 55.64208 8.65221 14969 ft 333 kts 234°
2025-10-08 15:37 55.61247 8.58811 16342 ft 339 kts 234°
2025-10-08 15:38 55.59744 8.55567 17025 ft 343 kts 233°
2025-10-08 15:38 55.56687 8.48998 18369 ft 350 kts 233°
2025-10-08 15:39 55.53548 8.42287 19563 ft 357 kts 233°
2025-10-08 15:39 55.48765 8.32068 21346 ft 366 kts 233°
2025-10-08 15:40 55.45478 8.25090 22491 ft 373 kts 233°
2025-10-08 15:40 55.42156 8.17974 23580 ft 378 kts 237°
2025-10-08 15:41 55.39724 8.09774 24477 ft 380 kts 248°
2025-10-08 15:41 55.38632 8.05529 24923 ft 382 kts 247°
2025-10-08 15:42 55.34162 7.88445 26622 ft 390 kts 247°
2025-10-08 15:44 55.23698 7.48809 30332 ft 408 kts 246°
2025-10-08 15:46 55.15155 7.16946 32746 ft 415 kts 247°
2025-10-08 15:48 55.03952 6.75854 35732 ft 421 kts 247°
2025-10-08 15:50 54.93248 6.45185 37652 ft 429 kts 238°
2025-10-08 15:52 54.77520 6.07465 38178 ft 429 kts 237°
2025-10-08 15:54 54.63422 5.74142 38190 ft 431 kts 237°
2025-10-08 15:56 54.49195 5.40960 38202 ft 431 kts 237°
2025-10-08 15:58 54.34851 5.07969 38199 ft 432 kts 237°
2025-10-08 16:00 54.20423 4.75173 38222 ft 432 kts 237°
2025-10-08 16:02 54.05889 4.42631 38231 ft 432 kts 236°
2025-10-08 16:04 53.91296 4.10320 38211 ft 432 kts 236°
2025-10-08 16:06 53.75833 3.79236 38238 ft 434 kts 230°
2025-10-08 16:08 53.58893 3.50319 38239 ft 443 kts 216°
2025-10-08 16:10 53.36855 3.31318 38250 ft 446 kts 212°
2025-10-08 16:12 53.14743 3.12550 38248 ft 446 kts 212°
2025-10-08 16:14 52.95341 2.96260 38232 ft 447 kts 211°
2025-10-08 16:16 52.70572 2.75690 36089 ft 445 kts 211°
2025-10-08 16:18 52.51016 2.59690 30927 ft 439 kts 211°
2025-10-08 16:20 52.27760 2.40775 28033 ft 406 kts 211°
2025-10-08 16:22 52.10486 2.26237 26231 ft 390 kts 223°
2025-10-08 16:24 51.98059 2.03830 24539 ft 379 kts 232°
2025-10-08 16:24 51.94579 1.97415 24080 ft 378 kts 232°
2025-10-08 16:25 51.92843 1.94223 23852 ft 377 kts 232°
2025-10-08 16:25 51.89369 1.87864 23312 ft 376 kts 232°
2025-10-08 16:26 51.85934 1.81575 23121 ft 375 kts 232°
2025-10-08 16:26 51.82485 1.75256 22955 ft 374 kts 232°
2025-10-08 16:27 51.79027 1.68962 22779 ft 374 kts 232°
2025-10-08 16:27 51.74873 1.58588 22290 ft 364 kts 255°
2025-10-08 16:28 51.74093 1.50660 21769 ft 359 kts 266°
2025-10-08 16:28 51.73577 1.42672 21257 ft 357 kts 266°
2025-10-08 16:29 51.73313 1.38700 21073 ft 356 kts 266°
2025-10-08 16:29 51.72789 1.30753 20972 ft 356 kts 266°
2025-10-08 16:30 51.72262 1.22775 20074 ft 363 kts 266°
2025-10-08 16:30 51.71728 1.14768 18977 ft 359 kts 266°
2025-10-08 16:31 51.71193 1.06830 17850 ft 352 kts 266°
2025-10-08 16:31 51.70392 0.95300 16289 ft 338 kts 266°
2025-10-08 16:32 51.69869 0.87739 15267 ft 348 kts 266°
2025-10-08 16:32 51.69343 0.80030 14208 ft 347 kts 266°
2025-10-08 16:33 51.69074 0.76182 13636 ft 345 kts 266°
2025-10-08 16:33 51.68533 0.68545 12588 ft 341 kts 265°
2025-10-08 16:34 51.67985 0.60988 11555 ft 337 kts 265°
2025-10-08 16:34 51.67180 0.50081 11098 ft 307 kts 265°
2025-10-08 16:35 51.66709 0.43564 10812 ft 285 kts 266°
2025-10-08 16:36 51.66027 0.34238 9452 ft 277 kts 266°
2025-10-08 16:36 51.65569 0.28116 8461 ft 274 kts 265°
2025-10-08 16:36 51.65341 0.25081 7987 ft 272 kts 266°
2025-10-08 16:37 51.64890 0.19100 7434 ft 270 kts 266°
2025-10-08 16:37 51.63733 0.13685 7175 ft 251 kts 235°
2025-10-08 16:38 51.61440 0.09572 6533 ft 245 kts 231°
2025-10-08 16:38 51.59169 0.05551 5989 ft 241 kts 231°
2025-10-08 16:39 51.56940 0.01608 5608 ft 237 kts 230°
2025-10-08 16:40 51.53663 -0.04197 4996 ft 232 kts 230°
2025-10-08 16:40 51.51517 -0.07978 4486 ft 225 kts 230°
2025-10-08 16:40 51.50470 -0.09820 4228 ft 220 kts 230°
2025-10-08 16:41 51.48467 -0.13338 3722 ft 207 kts 230°
2025-10-08 16:41 51.46780 -0.16828 3297 ft 189 kts 251°
2025-10-08 16:42 51.46531 -0.20753 2868 ft 171 kts 271°